Terminal Aerodrome Forecast
Issued by NWS

Home | Current Version | Previous Version | Text Only | Print | Product List | Glossary On
Versions: 1 2 3 4 5 6 7 8 9 10 11 12 13 14
546
FTUS45 KPSR 041121
TAFBLH
TAF
KBLH 041121Z 0412/0512 33004KT P6SM SKC
     FM041800 17015KT P6SM FEW250
      TEMPO 0421/0501 18018G26KT
     FM050100 22015KT P6SM FEW250=

USA.gov is the U.S. government's official web portal to all federal, state and local government web resources and services.